METAR Formatted Surface Weather Observation
Issued by NWS

Home | Current Version | Previous Version | Text Only | Print | Product List | Glossary On
Versions: 1 2 3 4 5 6 7 8 9 10 11 12 13 14 15 16 17 18 19 20 21 22 23 24 25 26 27 28 29 30 31 32 33 34 35 36 37 38 39 40 41 42 43 44 45 46 47 48 49 50
000
SAUS46 KPQR 301157
MTRNUW
METAR KNUW 301156Z 23008KT 10SM FEW012 BKN050 BKN065 13/10 A3000 RMK
AO2 SLP164 70001 T01330100 10139 20128 51007 $



USA.gov is the U.S. government's official web portal to all federal, state and local government web resources and services.